Regional Weather Roundup
Issued by NWS

Home | Current Version | Previous Version | Graphics & Text | Print | Product List | Glossary On
Versions: 1 2 3 4 5 6 7 8 9 10 11 12 13 14 15 16 17 18 19 20 21 22 23 24 25 26 27 28 29 30 31 32 33 34 35 36 37 38 39 40 41 42 43 44 45 46 47 48 49 50
000
ASUS43 KFSD 230710
RWRSD

WEATHER ROUNDUP FOR SOUTH DAKOTA
NATIONAL WEATHER SERVICE SIOUX FALLS SD
200 AM CDT THU OCT 23 2014

NOTE: "FAIR" INDICATES FEW OR NO CLOUDS BELOW 12,000 FEET WITH NO
SIGNIFICANT WEATHER AND/OR OBSTRUCTIONS TO VISIBILITY.


SDZ001>005-009-010-012>017-230800-
NORTHWEST AND NORTH CENTRAL SOUTH DAKOTA

CITY           SKY/WX    TMP DP  RH WIND       PRES   REMARKS
BUFFALO          N/A     39  26  59 W5        29.90F
FAITH            N/A     44  29  55 SW10      29.98F
MOBRIDGE       CLEAR     42  36  79 E5        29.94S
$$

SDZ012>016-024>037-041>051-057-063-072>074-230800-
SOUTHWEST AND SOUTH CENTRAL SOUTH DAKOTA

CITY           SKY/WX    TMP DP  RH WIND       PRES   REMARKS
RAPID CTY ARPT CLEAR     38  32  79 W7        30.02F
PIERRE         CLEAR     46  35  65 SW7       29.98S
CUSTER         CLEAR     39  23  52 W3        30.07S
ELLSWORTH AFB  CLEAR     44  32  63 SW5       30.02S
PHILIP         CLEAR     33  29  85 W6        30.01F WCI  28
PINE RIDGE     CLEAR     33  29  85 W6        30.05S WCI  28
SPEARFISH      FAIR      39  25  56 CALM      30.03R
WINNER         FAIR      51  38  60 SW7       30.02S
$$

SDZ004>011-016>023-039-040-230800-
NORTHEAST SOUTH DAKOTA

CITY           SKY/WX    TMP DP  RH WIND       PRES   REMARKS
ABERDEEN       CLEAR     38  36  92 SW6       29.95F
WATERTOWN      CLEAR     46  45  96 SE5       29.98S
SISSETON         N/A     53  48  83 W14       29.92S
$$

SDZ017-020-022-023-036>040-048>070-230800-
SOUTHEAST SOUTH DAKOTA

CITY           SKY/WX    TMP DP  RH WIND       PRES   REMARKS
SIOUX FALLS    FOG       49  49 100 SW3       30.01F VSB 1/4
HURON          CLEAR     45  43  93 S7        29.98S
CHAMBERLAIN    CLEAR     42  39  88 W6        30.01R
MITCHELL       CLEAR     44  43  96 S5        30.01S
YANKTON          N/A     45  43  93 CALM      30.02S VSB 1/4
$$

ABBREVIATIONS USED IN REMARKS
   TC - TEMPERATURE IN CELSIUS
  WCI - WIND CHILL INDEX
   HX - HEAT INDEX
  VSB - VISIBILITY




USA.gov is the U.S. government's official web portal to all federal, state and local government web resources and services.